QPF
0.00 0.00 0.00 0.00 0.00 0.00 0.00 0.00 0.00 0.00 0.00 0.00 0.00 0.00 0.00 0.00 0.00 0.00 0.00 0.00 0.00 0.00 0.00 0.00 0.00 0.00 0.00 0.00 0.00 0.00 0.00 0.00 0.00 0.00 0.00 0.00 0.00 0.00 0.00 0.00 0.00 0.00 0.00
0.00 0.00 0.00 0.00 0.00 0.00 0.00 0.00 0.00 0.00 0.00 0.00 0.00 0.00 0.00 0.00 0.00 0.00 0.00 0.00 0.00 0.00 0.00 0.00 0.00 0.00 0.00 0.00 0.00 0.00 0.00 0.00 0.00 0.00 0.00 0.00 0.00 0.00 0.00 0.00 0.00 0.00 0.01
0.00 0.00 0.00 0.00 0.00 0.00 0.00 0.00 0.00 0.00 0.00 0.00 0.00 0.00 0.00 0.00 0.00 0.00 0.00 0.00 0.00 0.00 0.00 0.00 0.00 0.00 0.00 0.00 0.00 0.00 0.00 0.00 0.00 0.00 0.00 0.00 0.00 0.00 0.00 0.00 0.00 0.00 0.00
0.00 0.00 0.00 0.00 0.00 0.00 0.00 0.00 0.00 0.00 0.00 0.00 0.00 0.00 0.00 0.00 0.00 0.00 0.00 0.00 0.00 0.00 0.00 0.00 0.00 0.00 0.00 0.00 0.00 0.00 0.00 0.00 0.00 0.00 0.00 0.00 0.00 0.00 0.00 0.00 0.00 0.00 0.00
0.00 0.00 0.00 0.00 0.00 0.00 0.00 0.00 0.00 0.00 0.00 0.00 0.00 0.00 0.00 0.00 0.00 0.00 0.00 0.00 0.00 0.00 0.00 0.00 0.00 0.00 0.00 0.00 0.00 0.00 0.00 0.00 0.00 0.00 0.00 0.00 0.00 0.00 0.00 0.00 0.00 0.00 0.00
0.00 0.00 0.00 0.00 0.00 0.00 0.00 0.00 0.00 0.00 0.00 0.00 0.00 0.00 0.00 0.00 0.00 0.00 0.00 0.00 0.00 0.00 0.00 0.00 0.00 0.00 0.00 0.00 0.00 0.00 0.00 0.00 0.00 0.00 0.00 0.00 0.00 0.00 0.00 0.00 0.00 0.00 0.00
0.00 0.00 0.00 0.00 0.00 0.00 0.00 0.00 0.00 0.00 0.00 0.00 0.00 0.00 0.00 0.00 0.00 0.00 0.00 0.00 0.00 0.00 0.00 0.00 0.00 0.00 0.00 0.00 0.00 0.00 0.00 0.00 0.00 0.00 0.00 0.00 0.00 0.00 0.00 0.00 0.00 0.00 0.00
0.00 0.00 0.00 0.00 0.00 0.00 0.00 0.00 0.00 0.00 0.00 0.00 0.00 0.00 0.00 0.00 0.00 0.00 0.00 0.00 0.00 0.00 0.00 0.00 0.00 0.00 0.00 0.00 0.00 0.00 0.00 0.00 0.00 0.00 0.00 0.00 0.00 0.00 0.00 0.00 0.00 0.00 0.00
0.00 0.00 0.00 0.00 0.00 0.00 0.00 0.00 0.00 0.00 0.00 0.00 0.00 0.00 0.00 0.00 0.00 0.00 0.00 0.00 0.00 0.00 0.00 0.00 0.00 0.00 0.00 0.00 0.00 0.00 0.00 0.00 0.00 0.00 0.00 0.00 0.00 0.00 0.01 0.01 0.01 0.01 0.00
0.00 0.00 0.00 0.00 0.00 0.00 0.00 0.00 0.00 0.00 0.00 0.00 0.00 0.00 0.00 0.00 0.00 0.00 0.00 0.00 0.00 0.00 0.00 0.00 0.00 0.00 0.00 0.00 0.00 0.00 0.00 0.00 0.00 0.00 0.00 0.00 0.00 0.00 0.00 0.01 0.01 0.01 0.01
0.15 0.11 0.02 0.00 0.00 0.00 0.00 0.00 0.00 0.00 0.00 0.00 0.00 0.00 0.00 0.00 0.00 0.00 0.00 0.00 0.00 0.00 0.00 0.00 0.00 0.00 0.00 0.00 0.00 0.00 0.00 0.00 0.00 0.00 0.00 0.00 0.00 0.00 0.00 0.00 0.00 0.01 0.01
0.13 0.11 0.05 0.03 0.01 0.00 0.00 0.00 0.00 0.00 0.00 0.00 0.00 0.00 0.00 0.00 0.00 0.00 0.00 0.00 0.00 0.00 0.00 0.00 0.00 0.00 0.00 0.00 0.00 0.00 0.00 0.00 0.00 0.00 0.00 0.00 0.00 0.00 0.00 0.00 0.00 0.00 0.01
0.12 0.13 0.07 0.05 0.04 0.01 0.00 0.00 0.00 0.00 0.00 0.00 0.00 0.00 0.00 0.00 0.00 0.00 0.00 0.00 0.00 0.00 0.00 0.00 0.00 0.00 0.00 0.00 0.00 0.00 0.00 0.00 0.00 0.00 0.01 0.01 0.01 0.01 0.01 0.01 0.01 0.01 0.01
0.05 0.11 0.11 0.09 0.08 0.04 0.00 0.00 0.00 0.00 0.00 0.00 0.00 0.00 0.00 0.00 0.00 0.00 0.00 0.00 0.00 0.00 0.00 0.00 0.00 0.00 0.00 0.00 0.00 0.00 0.00 0.00 0.00 0.00 0.00 0.01 0.03 0.04 0.02 0.01 0.01 0.01 0.00
0.01 0.02 0.05 0.05 0.03 0.01 0.00 0.00 0.00 0.00 0.00 0.00 0.00 0.00 0.00 0.00 0.00 0.00 0.00 0.00 0.00 0.00 0.00 0.00 0.00 0.00 0.00 0.00 0.00 0.00 0.00 0.00 0.00 0.00 0.00 0.02 0.02 0.02 0.03 0.04 0.03 0.02 0.02
0.03 0.03 0.02 0.01 0.00 0.00 0.00 0.00 0.00 0.00 0.00 0.00 0.00 0.00 0.00 0.00 0.00 0.00 0.00 0.00 0.00 0.00 0.00 0.00 0.00 0.00 0.00 0.00 0.00 0.00 0.00 0.00 0.00 0.00 0.00 0.00 0.01 0.02 0.03 0.04 0.05 0.06 0.08
0.04 0.02 0.00 0.00 0.00 0.00 0.00 0.00 0.00 0.00 0.00 0.00 0.00 0.00 0.00 0.00 0.00 0.00 0.00 0.00 0.00 0.00 0.00 0.00 0.00 0.00 0.00 0.00 0.00 0.00 0.00 0.00 0.00 0.00 0.00 0.00 0.00 0.01 0.04 0.07 0.09 0.08 0.09
0.04 0.01 0.00 0.00 0.00 0.00 0.00 0.00 0.00 0.00 0.00 0.00 0.00 0.00 0.00 0.00 0.00 0.00 0.00 0.00 0.00 0.00 0.00 0.00 0.00 0.00 0.00 0.00 0.00 0.00 0.00 0.00 0.00 0.00 0.00 0.00 0.00 0.00 0.01 0.04 0.07 0.11 0.12
0.00 0.00 0.00 0.00 0.00 0.00 0.00 0.00 0.00 0.00 0.00 0.00 0.00 0.00 0.00 0.00 0.00 0.00 0.00 0.00 0.00 0.00 0.00 0.00 0.00 0.00 0.00 0.00 0.00 0.00 0.00 0.00 0.00 0.00 0.00 0.00 0.00 0.00 0.00 0.00 0.01 0.03 0.04
0.00 0.00 0.00 0.00 0.00 0.00 0.00 0.00 0.00 0.00 0.00 0.00 0.00 0.00 0.00 0.00 0.00 0.00 0.00 0.00 0.00 0.00 0.00 0.00 0.00 0.00 0.00 0.00 0.00 0.00 0.00 0.00 0.00 0.00 0.00 0.00 0.00 0.00 0.00 0.00 0.00 0.00 0.00
0.00 0.00 0.00 0.00 0.00 0.00 0.00 0.00 0.00 0.00 0.00 0.00 0.00 0.00 0.00 0.00 0.00 0.00 0.00 0.00 0.00 0.00 0.00 0.00 0.00 0.00 0.00 0.00 0.00 0.00 0.00 0.00 0.00 0.00 0.00 0.00 0.00 0.00 0.00 0.00 0.00 0.00 0.00
0.00 0.00 0.00 0.00 0.00 0.00 0.00 0.00 0.00 0.00 0.00 0.00 0.00 0.00 0.00 0.00 0.00 0.00 0.00 0.00 0.00 0.00 0.00 0.00 0.00 0.00 0.00 0.00 0.00 0.00 0.00 0.00 0.00 0.00 0.00 0.00 0.00 0.00 0.00 0.00 0.00 0.00 0.00
0.00 0.00 0.00 0.00 0.00 0.00 0.00 0.00 0.00 0.00 0.00 0.00 0.00 0.00 0.00 0.00 0.00 0.00 0.00 0.00 0.00 0.00 0.00 0.00 0.00 0.00 0.00 0.00 0.00 0.00 0.00 0.00 0.00 0.00 0.00 0.00 0.00 0.00 0.00 0.00 0.00 0.00 0.00
0.00 0.00 0.00 0.00 0.00 0.00 0.00 0.00 0.00 0.00 0.00 0.00 0.00 0.00 0.00 0.00 0.00 0.00 0.00 0.00 0.00 0.00 0.00 0.00 0.00 0.00 0.00 0.00 0.00 0.00 0.00 0.00 0.00 0.00 0.00 0.00 0.00 0.00 0.00 0.00 0.00 0.00 0.00
0.00 0.00 0.00 0.00 0.00 0.00 0.00 0.00 0.00 0.00 0.00 0.00 0.00 0.00 0.00 0.00 0.00 0.00 0.00 0.00 0.00 0.00 0.00 0.00 0.00 0.00 0.00 0.00 0.00 0.00 0.00 0.00 0.00 0.00 0.00 0.00 0.00 0.00 0.00 0.00 0.00 0.00 0.00
0.00 0.00 0.00 0.00 0.00 0.00 0.00 0.00 0.00 0.00 0.00 0.00 0.00 0.00 0.00 0.00 0.00 0.00 0.00 0.00 0.00 0.00 0.00 0.00 0.00 0.00 0.00 0.00 0.00 0.00 0.00 0.00 0.00 0.00 0.00 0.00 0.00 0.00 0.00 0.00 0.00 0.00 0.00
MSLP
1015.56 1016.26 1017.28 1017.86 1018.05 1018.77 1019.30 1019.46 1019.49 1019.19 1018.89 1018.54 1018.53 1018.57 1018.86 1018.82 1018.62 1018.51 1018.43 1018.16 1018.06 1017.80 1017.73 1017.82 1017.84 1017.62 1017.46 1017.29 1016.89 1016.30 1015.62 1014.64 1014.52 1013.58 1012.72 1011.82 1011.30 1011.18 1010.82 1010.32 1010.13 1010.32 1010.31
1015.38 1016.16 1017.06 1017.74 1018.19 1018.89 1019.36 1019.48 1019.79 1019.81 1019.58 1019.40 1019.21 1019.21 1019.10 1019.40 1019.35 1019.30 1019.10 1019.13 1018.92 1018.78 1018.90 1018.98 1018.84 1018.64 1018.50 1018.16 1017.75 1017.38 1016.90 1016.21 1015.61 1015.27 1014.19 1012.97 1011.76 1011.05 1010.38 1010.03 1009.92 1010.04 1009.98
1014.78 1015.91 1016.66 1017.54 1018.33 1019.16 1019.51 1019.50 1019.73 1020.09 1020.06 1019.88 1019.73 1019.62 1019.62 1019.66 1019.96 1020.21 1020.13 1020.02 1019.80 1020.01 1019.92 1019.76 1019.71 1019.47 1019.18 1019.02 1018.75 1018.37 1017.87 1017.49 1016.80 1016.43 1015.93 1014.55 1013.33 1012.35 1010.72 1010.22 1010.19 1010.18 1009.87
1014.73 1015.46 1016.37 1017.46 1018.44 1019.38 1019.54 1019.60 1019.94 1020.23 1020.47 1020.50 1020.42 1020.57 1020.79 1020.85 1021.11 1021.13 1021.11 1020.80 1020.68 1020.63 1020.58 1020.44 1020.26 1020.00 1019.65 1019.35 1019.08 1018.79 1018.45 1018.03 1017.45 1016.86 1015.96 1016.26 1015.76 1014.04 1012.26 1010.66 1010.14 1009.90 1009.84
1014.26 1015.17 1016.26 1017.56 1018.48 1019.28 1019.80 1019.90 1020.18 1020.55 1020.65 1020.80 1020.87 1021.18 1021.46 1021.60 1021.71 1021.75 1021.62 1021.58 1021.39 1021.17 1020.99 1020.75 1020.46 1020.20 1020.00 1019.78 1019.46 1019.15 1018.87 1018.54 1018.18 1017.71 1017.32 1016.57 1015.56 1014.90 1014.11 1012.06 1011.12 1010.73 1009.82
1014.24 1015.24 1016.37 1017.29 1018.60 1019.33 1019.76 1020.02 1020.32 1020.71 1020.88 1021.05 1021.37 1021.66 1022.00 1022.17 1022.34 1022.39 1022.30 1022.12 1021.88 1021.62 1021.34 1021.06 1020.78 1020.53 1020.24 1019.89 1019.65 1019.40 1019.03 1018.76 1018.47 1018.06 1017.50 1017.06 1016.52 1015.81 1015.42 1014.12 1012.50 1011.76 1010.01
1013.83 1015.17 1016.42 1017.72 1018.91 1019.59 1020.06 1020.62 1020.73 1020.85 1021.07 1021.40 1021.69 1022.02 1022.28 1022.43 1022.85 1023.02 1022.95 1022.61 1022.24 1022.06 1021.80 1021.55 1021.21 1020.86 1020.62 1020.35 1019.83 1019.57 1019.32 1018.97 1018.66 1018.31 1017.78 1017.13 1016.50 1015.99 1015.45 1014.59 1013.05 1011.67 1010.43
1014.04 1015.42 1016.62 1017.95 1018.92 1019.71 1020.31 1020.86 1021.37 1021.52 1021.41 1021.53 1021.97 1022.27 1022.54 1022.91 1023.24 1023.34 1023.23 1022.99 1022.75 1022.48 1022.32 1022.10 1021.69 1021.42 1021.14 1020.84 1020.26 1019.90 1019.71 1019.37 1019.06 1018.69 1018.18 1017.54 1016.82 1016.00 1015.31 1014.81 1014.34 1012.72 1011.22
1014.41 1015.37 1017.00 1018.33 1019.32 1020.13 1020.67 1021.25 1021.81 1022.15 1022.08 1022.14 1022.36 1022.70 1022.75 1022.97 1023.54 1023.70 1023.46 1023.31 1023.19 1022.69 1022.83 1022.47 1022.19 1022.06 1021.72 1021.36 1020.78 1020.43 1020.13 1019.81 1019.55 1019.10 1018.78 1018.28 1017.46 1016.76 1016.14 1015.28 1014.62 1013.80 1011.94
1015.33 1016.03 1017.08 1018.61 1019.38 1020.17 1020.54 1021.24 1021.83 1022.25 1022.49 1022.76 1022.74 1022.94 1023.03 1023.20 1023.53 1023.99 1023.90 1023.62 1023.47 1023.35 1023.07 1022.93 1022.64 1022.48 1022.19 1021.81 1021.30 1020.79 1020.65 1020.27 1019.87 1019.45 1019.04 1018.47 1017.90 1017.25 1016.62 1015.54 1014.64 1013.83 1012.64
1017.00 1018.25 1017.83 1018.89 1019.98 1020.56 1021.12 1021.33 1022.09 1022.64 1022.76 1023.14 1023.27 1023.25 1023.26 1023.37 1023.68 1024.10 1024.06 1024.01 1023.85 1023.67 1023.51 1023.48 1023.24 1023.08 1022.77 1022.26 1021.76 1021.40 1021.24 1020.79 1020.50 1020.04 1019.31 1018.69 1018.14 1017.39 1016.50 1015.70 1014.90 1013.83 1012.93
1015.15 1016.52 1017.97 1018.66 1019.59 1020.55 1021.67 1022.32 1022.31 1022.75 1022.98 1023.30 1023.76 1023.62 1023.64 1023.73 1023.86 1024.20 1024.37 1024.56 1024.44 1024.33 1024.04 1024.13 1023.78 1023.77 1023.42 1022.87 1022.40 1021.97 1021.84 1021.51 1021.23 1020.65 1019.97 1019.19 1018.42 1017.40 1016.44 1015.58 1014.51 1013.68 1012.65
1014.81 1016.41 1017.50 1018.67 1020.05 1020.51 1021.65 1022.87 1022.76 1023.20 1023.12 1023.98 1024.09 1024.27 1024.18 1024.41 1024.41 1024.60 1024.93 1025.20 1025.17 1025.11 1024.75 1024.81 1024.41 1024.18 1023.88 1023.32 1022.85 1022.50 1022.66 1022.50 1021.77 1021.22 1020.47 1019.72 1018.70 1017.56 1016.68 1015.77 1015.10 1014.10 1012.94
1014.86 1016.36 1017.81 1018.95 1019.89 1020.58 1021.99 1022.62 1022.71 1023.26 1023.86 1024.67 1024.61 1024.88 1025.12 1025.12 1024.97 1025.21 1025.47 1025.84 1025.88 1025.74 1025.43 1025.34 1025.05 1024.68 1024.26 1023.69 1023.43 1023.16 1023.30 1023.02 1022.64 1021.92 1021.24 1020.34 1019.11 1018.17 1017.29 1016.19 1015.47 1014.36 1013.01
1015.19 1016.29 1017.68 1019.05 1019.80 1020.95 1021.80 1022.12 1023.06 1024.16 1024.73 1025.28 1025.35 1025.86 1025.82 1025.52 1025.59 1025.83 1026.09 1026.30 1026.41 1026.28 1025.98 1025.80 1025.66 1025.27 1024.51 1023.89 1024.02 1024.16 1024.08 1023.78 1023.12 1022.25 1021.57 1020.74 1019.72 1018.74 1017.85 1016.97 1016.16 1015.13 1013.70
1015.00 1016.28 1017.57 1018.69 1020.42 1021.17 1021.86 1022.80 1023.63 1024.82 1025.18 1025.66 1026.49 1026.49 1026.13 1025.97 1026.22 1026.47 1026.69 1026.89 1026.89 1026.80 1026.65 1026.45 1026.29 1025.85 1025.04 1024.58 1024.36 1024.69 1024.51 1024.25 1023.47 1022.89 1022.28 1021.37 1020.54 1019.38 1018.42 1017.61 1017.03 1016.36 1015.03
1015.62 1016.66 1017.71 1019.32 1020.17 1021.44 1022.27 1023.32 1024.37 1024.90 1025.94 1026.36 1026.90 1026.68 1026.44 1026.58 1026.72 1026.92 1027.16 1027.31 1027.23 1027.20 1027.27 1027.10 1026.82 1026.22 1025.73 1025.13 1024.91 1024.98 1025.18 1024.77 1024.27 1023.68 1022.97 1022.05 1021.26 1019.81 1019.31 1018.44 1017.86 1017.26 1016.33
1016.28 1017.50 1018.84 1020.19 1021.05 1022.07 1022.95 1023.72 1024.76 1025.77 1026.59 1026.85 1027.05 1026.84 1026.94 1027.10 1027.21 1027.28 1027.39 1027.46 1027.70 1027.64 1027.57 1027.69 1027.24 1027.00 1026.08 1025.50 1025.62 1025.60 1025.87 1025.38 1024.89 1024.13 1023.42 1022.86 1021.77 1020.73 1020.20 1019.46 1018.65 1018.36 1017.66
1017.62 1018.61 1019.66 1020.67 1021.83 1022.64 1023.43 1024.47 1025.57 1026.18 1026.63 1027.07 1027.40 1027.20 1027.19 1027.54 1027.61 1027.83 1027.62 1027.62 1027.86 1028.08 1027.96 1027.97 1027.79 1027.34 1026.98 1025.96 1025.88 1026.27 1026.01 1025.71 1025.20 1024.63 1023.95 1023.16 1022.31 1021.53 1020.79 1020.17 1019.67 1019.27 1018.66
1019.15 1019.78 1020.60 1021.48 1022.18 1023.26 1024.12 1024.93 1025.81 1026.30 1026.74 1027.12 1027.26 1027.17 1027.31 1027.48 1027.76 1027.68 1027.63 1027.70 1027.82 1028.16 1028.26 1028.29 1028.22 1028.04 1027.77 1026.68 1026.13 1026.37 1026.32 1026.07 1025.68 1025.12 1024.50 1023.35 1022.82 1022.25 1021.51 1021.24 1021.04 1020.23 1019.96
1020.00 1020.83 1021.31 1022.12 1022.95 1023.74 1024.42 1025.34 1025.97 1026.47 1026.77 1026.91 1027.06 1027.17 1027.31 1027.48 1027.64 1027.70 1027.68 1027.79 1027.95 1028.17 1028.43 1028.64 1028.87 1028.71 1028.27 1028.00 1026.84 1026.26 1026.32 1026.18 1025.99 1025.47 1024.98 1024.22 1023.58 1023.02 1022.77 1022.38 1021.90 1021.62 1021.11
1020.50 1021.38 1022.00 1022.67 1023.25 1023.93 1024.65 1025.43 1026.03 1026.37 1026.60 1026.87 1027.03 1027.18 1027.34 1027.65 1027.94 1028.01 1028.18 1028.24 1028.34 1028.64 1028.94 1029.12 1029.40 1029.38 1029.24 1028.21 1027.63 1026.97 1026.52 1026.22 1026.30 1026.18 1025.74 1025.21 1024.61 1024.26 1023.54 1023.48 1023.01 1022.44 1021.78
1020.74 1021.44 1022.07 1022.70 1023.37 1023.99 1024.58 1025.30 1025.84 1026.17 1026.54 1026.80 1027.11 1027.31 1027.57 1028.04 1028.30 1028.49 1028.79 1028.91 1029.01 1029.22 1029.63 1029.92 1030.08 1030.10 1029.77 1029.31 1028.30 1027.69 1027.30 1027.09 1027.16 1027.00 1026.64 1026.06 1025.80 1025.53 1025.10 1024.20 1023.91 1023.40 1022.69
1020.77 1021.30 1021.94 1022.57 1023.24 1023.78 1024.35 1024.95 1025.47 1025.98 1026.40 1026.78 1027.19 1027.63 1028.02 1028.32 1028.71 1029.02 1029.24 1029.38 1029.66 1029.89 1030.12 1030.47 1030.62 1030.60 1030.07 1029.50 1029.08 1028.91 1028.48 1028.15 1027.97 1027.95 1027.83 1027.38 1026.76 1026.54 1026.21 1025.52 1024.95 1024.47 1023.94
1020.65 1021.11 1021.68 1022.31 1022.87 1023.39 1024.02 1024.51 1025.09 1025.65 1026.17 1026.69 1027.17 1027.65 1028.17 1028.66 1029.12 1029.49 1029.74 1029.78 1030.01 1030.16 1030.37 1030.66 1030.57 1030.33 1030.01 1029.38 1028.66 1028.52 1028.52 1028.38 1028.43 1028.56 1028.43 1028.06 1027.69 1027.47 1027.19 1026.73 1026.22 1025.77 1025.27
1020.46 1020.98 1021.49 1022.02 1022.54 1023.17 1023.76 1024.21 1024.76 1025.33 1025.85 1026.50 1027.08 1027.56 1027.99 1028.72 1029.28 1029.53 1029.90 1029.89 1029.99 1030.09 1030.08 1030.08 1030.42 1030.66 1029.94 1029.60 1029.18 1029.00 1029.02 1028.93 1028.94 1029.13 1029.41 1029.41 1029.21 1028.78 1028.42 1027.95 1027.50 1027.12 1026.76
Thickness
5637 5631 5621 5613 5612 5604 5598 5595 5592 5593 5593 5593 5590 5587 5582 5581 5580 5582 5578 5582 5580 5582 5583 5582 5578 5578 5578 5580 5583 5587 5589 5594 5591 5599 5612 5622 5628 5632 5639 5645 5650 5653 5656
5633 5627 5614 5605 5599 5592 5587 5583 5577 5574 5574 5572 5572 5570 5569 5564 5561 5560 5559 5559 5559 5561 5561 5559 5558 5558 5557 5560 5562 5565 5565 5568 5566 5567 5579 5597 5610 5618 5625 5632 5636 5639 5644
5626 5618 5608 5596 5585 5577 5573 5571 5566 5560 5557 5556 5555 5553 5551 5548 5544 5541 5540 5539 5539 5540 5539 5539 5537 5538 5538 5538 5539 5542 5545 5545 5545 5544 5545 5563 5579 5589 5607 5614 5616 5621 5629
5616 5609 5599 5584 5572 5564 5561 5558 5552 5548 5543 5540 5537 5534 5529 5527 5523 5521 5519 5520 5519 5520 5519 5519 5518 5518 5519 5520 5520 5522 5523 5525 5526 5523 5530 5526 5532 5555 5574 5596 5604 5606 5610
5607 5599 5588 5575 5561 5552 5547 5542 5537 5532 5529 5525 5522 5517 5513 5509 5506 5504 5502 5500 5500 5500 5500 5499 5499 5498 5498 5499 5500 5501 5502 5504 5505 5506 5505 5505 5517 5525 5536 5562 5576 5582 5594
5593 5587 5577 5567 5550 5540 5534 5529 5523 5519 5515 5511 5506 5501 5496 5493 5489 5486 5485 5483 5482 5482 5481 5481 5480 5480 5479 5480 5481 5482 5484 5485 5487 5489 5492 5493 5496 5501 5505 5519 5543 5549 5571
5584 5575 5565 5552 5537 5527 5521 5515 5511 5508 5504 5498 5493 5488 5484 5480 5474 5470 5468 5467 5466 5463 5463 5461 5461 5461 5461 5462 5465 5465 5465 5466 5468 5471 5477 5482 5486 5489 5491 5498 5518 5535 5551
5577 5564 5552 5540 5528 5517 5508 5503 5496 5493 5492 5488 5481 5476 5471 5464 5459 5455 5453 5451 5449 5447 5445 5443 5443 5442 5443 5444 5447 5449 5449 5450 5451 5453 5457 5464 5471 5476 5480 5482 5487 5505 5524
5561 5552 5533 5520 5511 5501 5495 5489 5482 5477 5476 5474 5468 5462 5458 5453 5445 5441 5439 5436 5433 5433 5429 5428 5427 5425 5426 5428 5430 5433 5434 5434 5436 5438 5439 5443 5451 5456 5461 5467 5472 5481 5500
5539 5536 5523 5507 5498 5489 5484 5479 5472 5467 5462 5457 5456 5450 5446 5442 5436 5427 5424 5422 5419 5416 5415 5413 5412 5411 5411 5412 5415 5418 5418 5420 5421 5423 5425 5430 5434 5439 5443 5453 5460 5467 5480
5516 5503 5505 5494 5481 5474 5467 5466 5458 5452 5450 5444 5440 5438 5434 5430 5424 5415 5411 5406 5403 5402 5401 5399 5398 5396 5396 5398 5401 5403 5403 5404 5405 5407 5412 5416 5419 5425 5432 5438 5445 5456 5465
5523 5509 5499 5490 5478 5467 5453 5446 5445 5442 5438 5433 5425 5425 5421 5415 5410 5403 5397 5391 5389 5387 5387 5385 5386 5384 5384 5386 5387 5389 5388 5389 5389 5393 5397 5401 5407 5414 5421 5427 5436 5444 5456
5515 5500 5490 5478 5466 5457 5444 5428 5429 5427 5427 5416 5413 5408 5406 5399 5396 5390 5383 5376 5374 5372 5372 5371 5372 5373 5373 5375 5377 5377 5373 5372 5377 5379 5382 5386 5393 5400 5406 5413 5418 5428 5439
5505 5491 5479 5468 5457 5450 5428 5421 5421 5416 5407 5398 5398 5393 5387 5383 5381 5375 5369 5362 5359 5358 5358 5358 5358 5360 5361 5364 5364 5364 5360 5360 5359 5362 5365 5370 5377 5382 5386 5394 5400 5411 5424
5491 5482 5467 5454 5445 5433 5421 5417 5409 5398 5390 5384 5381 5373 5371 5370 5366 5360 5354 5349 5346 5346 5346 5346 5345 5347 5351 5355 5352 5349 5347 5347 5350 5353 5353 5356 5360 5363 5366 5371 5378 5388 5402
5485 5471 5460 5449 5435 5422 5412 5403 5395 5382 5376 5370 5359 5357 5359 5357 5351 5346 5342 5337 5335 5334 5334 5333 5333 5335 5341 5343 5343 5340 5340 5339 5343 5344 5342 5344 5343 5345 5345 5347 5352 5360 5375
5472 5463 5451 5432 5422 5409 5400 5390 5378 5373 5360 5355 5347 5347 5346 5343 5337 5335 5330 5324 5322 5322 5320 5320 5321 5326 5329 5332 5333 5332 5331 5331 5331 5332 5333 5335 5335 5340 5334 5333 5335 5341 5352
5456 5437 5423 5411 5402 5392 5385 5376 5366 5355 5346 5341 5338 5338 5333 5328 5326 5321 5317 5314 5309 5307 5307 5307 5311 5313 5319 5323 5322 5323 5322 5321 5321 5323 5324 5324 5328 5332 5330 5329 5329 5329 5334
5425 5415 5405 5396 5385 5379 5371 5359 5348 5342 5337 5330 5326 5323 5320 5315 5313 5309 5308 5306 5301 5297 5298 5297 5299 5304 5306 5313 5314 5313 5314 5313 5313 5316 5316 5318 5320 5323 5323 5324 5324 5323 5326
5404 5398 5388 5379 5373 5363 5354 5346 5337 5332 5326 5321 5317 5315 5311 5308 5304 5302 5301 5299 5296 5291 5291 5290 5291 5294 5295 5302 5305 5305 5304 5305 5306 5308 5309 5312 5313 5315 5317 5315 5313 5316 5316
5387 5380 5374 5367 5358 5350 5343 5333 5327 5321 5317 5314 5311 5308 5306 5302 5297 5295 5293 5291 5289 5287 5285 5284 5283 5284 5286 5289 5293 5297 5297 5298 5298 5301 5302 5304 5305 5307 5307 5306 5308 5308 5309
5377 5368 5361 5352 5346 5338 5332 5324 5318 5314 5311 5307 5304 5301 5297 5293 5288 5286 5284 5283 5282 5280 5278 5276 5275 5275 5276 5279 5282 5286 5289 5292 5291 5291 5292 5293 5295 5296 5298 5297 5298 5301 5305
5367 5359 5350 5344 5337 5331 5325 5317 5311 5309 5305 5301 5296 5292 5289 5283 5279 5277 5274 5274 5275 5274 5270 5267 5266 5265 5266 5270 5273 5277 5280 5281 5281 5280 5280 5282 5282 5283 5285 5288 5289 5291 5295
5357 5351 5343 5338 5331 5326 5320 5313 5308 5304 5299 5295 5289 5284 5280 5276 5273 5271 5270 5269 5267 5264 5263 5260 5258 5255 5259 5263 5267 5268 5270 5270 5270 5269 5268 5270 5270 5272 5272 5275 5277 5279 5281
5350 5343 5338 5332 5327 5323 5316 5311 5306 5300 5295 5289 5284 5279 5275 5271 5268 5265 5264 5264 5261 5259 5255 5252 5251 5248 5250 5257 5261 5261 5261 5261 5260 5258 5257 5258 5258 5258 5258 5259 5260 5261 5263
5343 5337 5333 5328 5324 5318 5312 5307 5302 5297 5292 5287 5281 5277 5274 5268 5263 5262 5259 5259 5257 5255 5254 5252 5249 5248 5250 5251 5253 5253 5252 5251 5249 5247 5243 5241 5240 5241 5241 5242 5242 5242 5242